Погода в Первомаевке

Россия / Республика Бурятия     52°01′56″N   108°24′01″E
темп.,
°C
ветер,
м/с
пор.,
м/с
влажн.,
%
обл.,
%
осадки,
мм/ч
давл.,
гПа
погр.,
м
14 мая, пт
пт1423:00+1з23543 0.0 101655
02:00−1з12640 0.0 101614
05:00−2зюз22725 0.0 101718
08:00+4з34565 0.0 1017649
11:00+9ссз4638100 0.0 10152263
14:00+12сз3531100 0.0 10142520
17:00+12ссз66305 0.0 10142049
20:00+7ссз11420 0.0 101510
15 мая, сб
сб1523:00+4з11510 0.0 101811
02:00+2ююз11610 0.0 101810
05:000всв11700 0.0 101810
08:00+7всв01455 0.0 1016316
11:00+14з57265 0.0 10141411
14:00+15з79245 0.0 10141972
17:00+14зсз8102354 0.0 10142050
20:00+10з4835100 0.0 1015335
16 мая, вс
вс1623:00+7юз235198 0.0 101638
02:00+5юз34585 0.0 101662
05:00+5юз376375 0.0 1015120
08:00+11зюз59485 0.0 1013754
11:00+17з7133597 0.0 10102333
14:00+15сз71048100 0.0 10111658
17:00+13зсз695849 0.0 10111224
20:00+11з366887 0.0 1010315
17 мая, пн
пн1723:00+7юз238796 0.0 101037
02:00+6юз229322 0.0 100813
05:00+5юз119498 0.0 100519
08:00+12зюз51065100 0.0 1003691
11:00+15з71058100 0.1 10031743
14:00+12зсз5768100 0.2 10041192
17:00+12сз595267 0.1 10061665
20:00+8с235913 0.1 100861
18 мая, вт
вт1823:00+4з227565 0.0 101125
02:00+3зюз229221 0.0 101224
05:00+2зюз2292100 0.0 101321
08:00+6зюз3468100 0.0 1013517
11:00+11зюз4539100 0.0 10101953
14:00+14з473287 0.0 10072289
17:00+15з583490 0.0 10042247
20:00+11зюз2351100 0.0 100242